Weather History for Millville, NJ

Change the Weather History Date:

Thursday, July 25, 2013

  Actual Average Record
Temperature  
Mean Temperature 68 °F -  
Max Temperature 72 °F 84 °F 96 °F (1949)
Min Temperature 64 °F 66 °F 57 °F (1953)
Cooling Degree Days 2    
Growing Degree Days 18 (Base 50)    
Moisture  
Dew Point 56 °F    
Average Humidity 69    
Maximum Humidity 81    
Minimum Humidity 57    
Precipitation  
Precipitation 0.00 in - - ()
Sea Level Pressure  
Sea Level Pressure 29.97 in    
Wind  
Wind Speed 10 mph (NNE)    
Max Wind Speed 15 mph    
Max Gust Speed 22 mph    
Visibility 10 miles    
Events Rain    
Averages and records for this station are not official NWS values.
T = Trace of Precipitation, MM = Missing Value Source: NWS Daily Summary

Daily Weather History Graph

Daily Weather History Graph

Search for Another Location

Airport:

Trip Planner

Search our weather history database for the weather conditions in past years. The results will help you decide how hot, cold, wet, or windy it might be!

Date:

Astronomy

Jul. 25, 2013 Rise Set
Actual Time 5:54 AM EDT 8:18 PM EDT
Civil Twilight 5:23 AM EDT 8:49 PM EDT
Nautical Twilight 4:45 AM EDT 9:27 PM EDT
Astronomical Twilight 4:03 AM EDT 10:08 PM EDT
Moon 9:59 PM EDT (7/25) 9:19 AM EDT (7/25)
Length of Visible Light 15h 25m
Length of Day
14h 24m
Waning Gibbous, 88% of the Moon is Illuminated
Jul 25
Waning Gibbous
Jul 29
Last Quarter
Aug 6
New
Aug 14
First Quarter
Aug 20
Full

Hourly Weather History & Observations

Time (EDT) Temp. Dew Point Humidity Pressure Visibility Wind Dir Wind Speed Gust Speed Precip Events Conditions
12:54 AM 71.1 °F 55.0 °F 57% 29.91 in 10.0 mi North 15.0 mph - N/A   Scattered Clouds
1:54 AM 69.1 °F 54.0 °F 58% 29.90 in 10.0 mi North 10.4 mph - N/A   Scattered Clouds
2:54 AM 66.9 °F 53.1 °F 61% 29.91 in 10.0 mi North 5.8 mph - N/A   Clear
3:54 AM 66.0 °F 53.1 °F 63% 29.91 in 10.0 mi NNE 10.4 mph - N/A   Clear
4:54 AM 66.0 °F 53.1 °F 63% 29.91 in 10.0 mi North 8.1 mph 17.3 mph N/A   Clear
5:38 AM 64.4 °F 53.6 °F 68% 29.91 in 10.0 mi North 6.9 mph - N/A   Mostly Cloudy
5:54 AM 64.9 °F 53.1 °F 65% 29.92 in 10.0 mi North 6.9 mph - N/A   Overcast
6:11 AM 64.4 °F 53.6 °F 68% 29.92 in 10.0 mi NNE 8.1 mph - N/A   Scattered Clouds
6:46 AM 64.4 °F 53.6 °F 68% 29.94 in 10.0 mi NNE 8.1 mph - N/A   Mostly Cloudy
6:54 AM 64.9 °F 53.1 °F 65% 29.94 in 10.0 mi NNE 8.1 mph - N/A   Overcast
7:51 AM 66.2 °F 53.6 °F 64% 29.95 in 10.0 mi North 10.4 mph - N/A   Mostly Cloudy
7:54 AM 66.0 °F 54.0 °F 65% 29.95 in 10.0 mi North 9.2 mph - N/A   Mostly Cloudy
8:12 AM 66.2 °F 55.4 °F 68% 29.95 in 10.0 mi NNE 9.2 mph - N/A   Mostly Cloudy
8:41 AM 66.2 °F 55.4 °F 68% 29.96 in 10.0 mi NNE 10.4 mph - N/A   Mostly Cloudy
8:54 AM 66.9 °F 55.0 °F 66% 29.96 in 10.0 mi North 6.9 mph - N/A   Scattered Clouds
9:54 AM 66.9 °F 57.9 °F 73% 29.97 in 10.0 mi NE 8.1 mph - 0.00 in Rain Light Rain
10:31 AM 68.0 °F 57.2 °F 68% 29.96 in 10.0 mi NE 15.0 mph 18.4 mph 0.00 in   Overcast
10:54 AM 69.1 °F 59.0 °F 70% 29.96 in 10.0 mi NE 11.5 mph 21.9 mph 0.00 in   Mostly Cloudy
11:54 AM 69.1 °F 59.0 °F 70% 29.99 in 10.0 mi NE 11.5 mph - N/A   Overcast
12:54 PM 70.0 °F 60.1 °F 71% 29.99 in 10.0 mi NNE 15.0 mph - 0.00 in   Overcast
1:54 PM 69.1 °F 59.0 °F 70% 30.00 in 10.0 mi NE 9.2 mph - N/A   Overcast
2:54 PM 70.0 °F 59.0 °F 68% 29.99 in 10.0 mi NNE 10.4 mph - N/A   Overcast
3:54 PM 71.1 °F 59.0 °F 66% 29.99 in 10.0 mi NNE 13.8 mph - N/A   Overcast
4:54 PM 69.1 °F 59.0 °F 70% 30.00 in 10.0 mi NE 11.5 mph - N/A   Overcast
5:54 PM 69.1 °F 59.0 °F 70% 30.00 in 10.0 mi NE 10.4 mph - N/A   Overcast
6:54 PM 68.0 °F 59.0 °F 73% 30.01 in 10.0 mi NNE 13.8 mph - N/A   Overcast
7:54 PM 66.9 °F 59.0 °F 76% 30.01 in 10.0 mi NNE 9.2 mph - N/A   Overcast
8:54 PM 66.9 °F 57.9 °F 73% 30.02 in 10.0 mi North 10.4 mph - N/A   Overcast
9:23 PM 66.2 °F 57.2 °F 73% 30.03 in 10.0 mi North 6.9 mph - N/A   Overcast
9:54 PM 66.9 °F 57.9 °F 73% 30.03 in 10.0 mi North 5.8 mph - N/A   Overcast
10:54 PM 66.0 °F 57.9 °F 75% 30.02 in 10.0 mi NE 9.2 mph - N/A   Overcast
11:38 PM 66.2 °F 59.0 °F 78% 30.02 in 10.0 mi NE 8.1 mph - N/A   Overcast
11:54 PM 64.9 °F 59.0 °F 81% 30.02 in 10.0 mi NNE 6.9 mph - N/A   Overcast